Date String (YYYY-MM-DD hh:mm:ss) UTC,Instrument flags,absolute air pressure of the measurement (hPa),sample flow rate (lpm),inlet stack bypass flow (lpm),air temperature of the measurement (°C),ambient temperature measured by the external sensor (°C),aerosol sample conditioner tube jacket temperature (°C),OPC LED temperature (°C),internal box temperature (°C),relative humidity of the measurement (%),span deviation,mass concentration of particles derived from Lorenz-Mie calculation of OPC scattering (μg/m³),mass concentration of particles derived from Lorenz-Mie calculation of OPC scattering (μg/m³),mass concentration of particles derived from Lorenz-Mie calculation of OPC scattering (μg/m³)
DateTimeUTC,F1_M11,P_M11,Q1_M11,Q2_M11,T1_M11,T2_M11,T3_M11,T4_M11,T5_M11,U1_M11,ZSPAN_M11,X0_M11,X2_M11,X1_M11
2023-10-04 04:00:00,SystemResetWarning,0828.6,5.00,000.00,028.6,027.1,000.0,037.0,030.2,12.2,0000.0,0002.21,0001.62,0001.38
2023-10-04 04:01:00,SystemResetWarning,0828.6,4.98,000.00,028.6,027.1,000.0,037.0,030.2,12.1,0000.0,0002.18,0001.60,0001.38
2023-10-04 04:02:00,SystemResetWarning,0828.6,5.00,000.00,028.6,027.1,000.0,037.1,030.2,12.1,0000.0,0002.13,0001.58,0001.38
2023-10-04 04:03:00,SystemResetWarning,0828.6,5.01,000.00,028.6,027.1,000.0,037.1,030.2,12.1,0000.0,0002.18,0001.58,0001.38
2023-10-04 04:04:00,SystemResetWarning,0828.6,5.01,000.00,028.6,027.2,000.0,037.1,030.2,12.2,0000.0,0002.16,0001.58,0001.38
2023-10-04 04:05:00,SystemResetWarning,0828.7,4.99,000.00,028.6,027.2,000.0,037.1,030.2,12.1,0000.0,0002.21,0001.59,0001.38
2023-10-04 04:06:00,SystemResetWarning,0828.7,5.00,000.00,028.6,027.2,000.0,037.1,030.2,12.2,0000.0,0002.27,0001.60,0001.38
2023-10-04 04:07:00,SystemResetWarning,0828.8,5.01,000.00,028.6,027.2,000.0,037.1,030.2,12.0,0000.0,0002.33,0001.61,0001.38
2023-10-04 04:08:00,SystemResetWarning,0828.8,5.01,000.00,028.7,027.2,000.0,037.1,030.2,12.0,0000.0,0002.80,0001.65,0001.39
2023-10-04 04:09:00,SystemResetWarning,0828.8,5.00,000.00,028.7,027.2,000.0,037.1,030.2,12.0,0000.0,0002.83,0001.65,0001.38
2023-10-04 04:10:00,SystemResetWarning,0828.9,5.00,000.00,028.7,027.2,000.0,037.1,030.2,12.0,0000.0,0002.95,0001.65,0001.38
2023-10-04 04:11:00,SystemResetWarning,0828.9,4.99,000.00,028.7,027.2,000.0,037.1,030.2,12.0,0000.0,0003.02,0001.66,0001.38
2023-10-04 04:12:00,SystemResetWarning,0828.9,5.00,000.00,028.7,027.2,000.0,037.1,030.2,12.0,0000.0,0003.03,0001.66,0001.37
2023-10-04 04:13:00,SystemResetWarning,0828.9,4.99,000.00,028.7,027.2,000.0,037.1,030.3,12.0,0000.0,0003.08,0001.68,0001.37
2023-10-04 04:14:00,SystemResetWarning,0829.0,5.00,000.00,028.7,027.2,000.0,037.1,030.3,12.0,0000.0,0003.21,0001.71,0001.38
2023-10-04 04:15:00,SystemResetWarning,0829.0,5.00,000.00,028.7,027.2,000.0,037.1,030.3,12.1,0000.0,0003.82,0001.76,0001.40
2023-10-04 04:16:00,SystemResetWarning,0829.0,5.00,000.00,028.7,027.3,000.0,037.1,030.3,12.1,0000.0,0003.87,0001.74,0001.40
2023-10-04 04:17:00,SystemResetWarning,0829.0,5.00,000.00,028.7,027.3,000.0,037.1,030.3,12.1,0000.0,0004.08,0001.72,0001.40
2023-10-04 04:18:00,SystemResetWarning,0829.1,5.00,000.00,028.7,027.3,000.0,037.1,030.3,12.1,0000.0,0004.08,0001.72,0001.40
2023-10-04 04:19:00,SystemResetWarning,0829.1,5.00,000.00,028.7,027.3,000.0,037.2,030.3,12.1,0000.0,0003.79,0001.69,0001.39
2023-10-04 04:20:00,SystemResetWarning,0829.1,5.00,000.00,028.7,027.4,000.0,037.2,030.3,12.1,0000.0,0003.49,0001.65,0001.39
2023-10-04 04:21:00,SystemResetWarning,0829.1,5.01,000.00,028.7,027.4,000.0,037.2,030.4,12.1,0000.0,0003.34,0001.63,0001.40
2023-10-04 04:22:00,SystemResetWarning,0829.1,5.00,000.00,028.8,027.4,000.0,037.2,030.4,12.1,0000.0,0003.20,0001.60,0001.40
2023-10-04 04:23:00,SystemResetWarning,0829.1,5.00,000.00,028.8,027.4,000.0,037.2,030.4,12.1,0000.0,0003.23,0001.62,0001.41
2023-10-04 04:24:00,SystemResetWarning,0829.1,5.00,000.00,028.8,027.4,000.0,037.2,030.4,12.1,0000.0,0003.28,0001.64,0001.41
2023-10-04 04:25:00,SystemResetWarning,0829.2,5.00,000.00,028.8,027.4,000.0,037.2,030.4,12.0,0000.0,0004.03,0001.67,0001.41
2023-10-04 04:26:00,SystemResetWarning,0829.2,5.00,000.00,028.8,027.4,000.0,037.2,030.4,12.0,0000.0,0004.03,0001.64,0001.41
2023-10-04 04:27:00,SystemResetWarning,0829.3,4.99,000.00,028.8,027.4,000.0,037.2,030.4,12.0,0000.0,0004.01,0001.66,0001.42
2023-10-04 04:28:00,SystemResetWarning,0829.3,5.00,000.00,028.8,027.5,000.0,037.2,030.4,12.0,0000.0,0003.84,0001.69,0001.43
2023-10-04 04:29:00,SystemResetWarning,0829.3,5.01,000.00,028.8,027.5,000.0,037.2,030.4,12.0,0000.0,0004.21,0001.71,0001.43
2023-10-04 04:30:00,SystemResetWarning,0829.3,5.00,000.00,028.8,027.5,000.0,037.2,030.4,12.0,0000.0,0004.53,0001.73,0001.44
2023-10-04 04:31:00,SystemResetWarning,0829.4,5.01,000.00,028.8,027.5,000.0,037.2,030.5,12.0,0000.0,0004.50,0001.73,0001.45
2023-10-04 04:32:00,SystemResetWarning,0829.4,5.00,000.00,028.8,027.5,000.0,037.2,030.5,12.0,0000.0,0004.52,0001.75,0001.46
2023-10-04 04:33:00,SystemResetWarning,0829.4,5.00,000.00,028.9,027.6,000.0,037.2,030.5,12.0,0000.0,0004.71,0001.78,0001.46
2023-10-04 04:34:00,SystemResetWarning,0829.4,5.00,000.00,028.9,027.6,000.0,037.2,030.5,12.0,0000.0,0004.87,0001.81,0001.47
2023-10-04 04:35:00,SystemResetWarning,0829.4,4.99,000.00,028.9,027.6,000.0,037.3,030.5,12.0,0000.0,0005.17,0001.80,0001.48
2023-10-04 04:36:00,SystemResetWarning,0829.4,5.00,000.00,028.9,027.6,000.0,037.3,030.5,12.0,0000.0,0004.62,0001.78,0001.49
2023-10-04 04:37:00,SystemResetWarning,0829.3,4.99,000.00,028.9,027.6,000.0,037.3,030.5,12.0,0000.0,0003.88,0001.78,0001.49
2023-10-04 04:38:00,SystemResetWarning,0829.3,5.00,000.00,028.9,027.6,000.0,037.3,030.5,11.9,0000.0,0003.96,0001.76,0001.48
2023-10-04 04:39:00,SystemResetWarning,0829.3,5.00,000.00,028.9,027.6,000.0,037.3,030.5,11.9,0000.0,0003.82,0001.75,0001.46
2023-10-04 04:40:00,SystemResetWarning,0829.4,5.00,000.00,028.9,027.6,000.0,037.3,030.6,12.0,0000.0,0003.52,0001.73,0001.46
2023-10-04 04:41:00,SystemResetWarning,0829.3,5.00,000.00,028.9,027.6,000.0,037.3,030.6,12.0,0000.0,0003.11,0001.73,0001.46
2023-10-04 04:42:00,SystemResetWarning,0829.4,5.00,000.00,029.0,027.7,000.0,037.4,030.6,11.9,0000.0,0003.19,0001.75,0001.46
2023-10-04 04:43:00,SystemResetWarning,0829.3,5.00,000.00,029.0,027.7,000.0,037.4,030.6,12.0,0000.0,0003.22,0001.75,0001.45
2023-10-04 04:44:00,SystemResetWarning,0829.4,5.00,000.00,029.0,027.7,000.0,037.4,030.6,11.9,0000.0,0003.22,0001.74,0001.43
2023-10-04 04:45:00,SystemResetWarning,0829.3,5.00,000.00,029.0,027.7,000.0,037.4,030.6,11.9,0000.0,0003.03,0001.69,0001.42
2023-10-04 04:46:00,SystemResetWarning,0829.3,5.00,000.00,029.0,027.7,000.0,037.4,030.6,11.9,0000.0,0002.73,0001.67,0001.41
2023-10-04 04:47:00,SystemResetWarning,0829.4,5.00,000.00,029.0,027.7,000.0,037.4,030.6,11.9,0000.0,0002.48,0001.64,0001.40
2023-10-04 04:48:00,SystemResetWarning,0829.4,5.00,000.00,029.0,027.7,000.0,037.4,030.6,12.0,0000.0,0003.50,0001.62,0001.40
2023-10-04 04:49:00,SystemResetWarning,0829.4,5.00,000.00,029.0,027.7,000.0,037.4,030.6,12.0,0000.0,0003.60,0001.65,0001.41
2023-10-04 04:50:00,SystemResetWarning,0829.4,5.00,000.00,029.0,027.7,000.0,037.4,030.6,12.1,0000.0,0003.67,0001.67,0001.43
2023-10-04 04:51:00,SystemResetWarning,0829.4,5.00,000.00,029.0,027.7,000.0,037.4,030.6,12.0,0000.0,0003.86,0001.72,0001.43
2023-10-04 04:52:00,SystemResetWarning,0829.4,4.99,000.00,029.0,027.7,000.0,037.4,030.6,11.9,0000.0,0003.95,0001.75,0001.43
2023-10-04 04:53:00,SystemResetWarning,0829.4,4.99,000.00,029.0,027.7,000.0,037.5,030.7,11.8,0000.0,0003.85,0001.71,0001.42
2023-10-04 04:54:00,SystemResetWarning,0829.4,5.00,000.00,029.0,027.7,000.0,037.4,030.7,11.8,0000.0,0003.86,0001.70,0001.41
2023-10-04 04:55:00,SystemResetWarning,0829.4,5.00,000.00,029.0,027.7,000.0,037.5,030.7,11.7,0000.0,0003.83,0001.69,0001.41
2023-10-04 04:56:00,SystemResetWarning,0829.4,5.00,000.00,029.1,027.7,000.0,037.5,030.7,11.7,0000.0,0003.86,0001.70,0001.41
2023-10-04 04:57:00,SystemResetWarning,0829.4,5.01,000.00,029.1,027.8,000.0,037.5,030.7,11.7,0000.0,0003.91,0001.72,0001.42
2023-10-04 04:58:00,SystemResetWarning,0829.4,5.00,000.00,029.1,027.8,000.0,037.5,030.7,11.7,0000.0,0003.95,0001.74,0001.42
2023-10-04 04:59:00,SystemResetWarning,0829.4,5.00,000.00,029.1,027.8,000.0,037.5,030.7,11.7,0000.0,0003.34,0001.74,0001.41
